Terug naar catalogus

STARLINK-5377

ActiefCommunicatieVLEO
NORAD 56141·PAYLOAD·🇺🇸 United States

Gelanceerd Mar 29, 2023 vanaf Cape Canaveral Space Force Station

Loading…

Volgende Passages (komende 24 uur)

TLE

VersSource: CelesTrak SupGP

Epoch: Sep 15, 2026, 01:24 UTC

1 56141C 23046BA  26258.05881944 -.00008542  00000+0 -30949-3 0  2580
2 56141  43.0001 157.5033 0001229 252.6991  47.9809 15.27573754    13

Volg STARLINK-5377 in realtime met AllMySat

Download on the App Store